Jennings, LA

4:15 PM CDT on September 22, 2019 (GMT -0500)
Jennings

Weather History for K3R7 - August, 2019

Change the Weather History Date:

Thursday, August 22, 2019

  Actual Average (WUND) Record (WUND)
Temperature  
Mean Temperature 82 °F -  
Max Temperature 89 °F - - (-1)
Min Temperature 74 °F - - (-1)
Cooling Degree Days 16    
Growing Degree Days 32 (Base 50)    
Moisture  
Dew Point 74 °F    
Average Humidity 78    
Maximum Humidity 96    
Minimum Humidity 53    
Precipitation  
Precipitation 0.00 in - - ()
Sea Level Pressure  
Sea Level Pressure 29.97 in    
Wind  
Wind Speed 4 mph ()    
Max Wind Speed 15 mph    
Max Gust Speed 20 mph    
Visibility 10.0 miles    
Events Thunderstorm    
Averages and records for this station are not official NWS values.
T = Trace of Precipitation, MM = Missing Value Source: Averaged Metar Reports

Daily Weather History Graph

Daily Weather History Graph

Search for Another Location

Airport or City:

Astronomy

Aug. 22, 2019 Rise Set
Actual Time 6:41 AM CDT 7:44 PM CDT
Civil Twilight 6:16 AM CDT 8:09 PM CDT
Nautical Twilight 5:47 AM CDT 8:39 PM CDT
Astronomical Twilight 5:17 AM CDT 9:09 PM CDT
Moon No Moon Rise 12:50 PM CDT
Length of Visible Light 13h 52m
Length of Day
13h 03m
Waning Gibbous, 59% of the Moon is Illuminated
Aug 22
Waning Gibbous
Aug 23
Last Quarter
Aug 30
New
Sep 5
First Quarter
Sep 13
Full

Hourly Weather History & Observations

Time (CDT) Temp. Heat Index Dew Point Humidity Pressure Visibility Wind Dir Wind Speed Gust Speed Precip Events Conditions
12:15 AM 77.2 °F - 75.2 °F 94% 30.00 in 10.0 mi SE 3.5 mph - N/A   Clear
12:35 AM 77.2 °F - 75.2 °F 94% 30.00 in 10.0 mi SE 4.6 mph - N/A   Clear
12:55 AM 77.2 °F - 75.2 °F 94% 29.99 in 10.0 mi SE 4.6 mph - N/A   Clear
1:15 AM 77.0 °F - 74.7 °F 92% 29.99 in 10.0 mi SE 3.5 mph - N/A   Clear
1:55 AM 76.5 °F - 74.3 °F 93% 29.99 in 10.0 mi Calm Calm - N/A   Clear
2:15 AM 76.5 °F - 74.3 °F 93% 29.99 in 10.0 mi Calm Calm - N/A   Clear
2:35 AM 76.3 °F - 74.3 °F 94% 29.99 in 10.0 mi SE 3.5 mph - N/A   Clear
2:55 AM 76.3 °F - 74.3 °F 94% 29.99 in 10.0 mi Calm Calm - N/A   Scattered Clouds
3:15 AM 76.1 °F - 74.3 °F 94% 29.98 in 10.0 mi SE 3.5 mph - N/A   Scattered Clouds
3:35 AM 76.3 °F - 74.3 °F 94% 29.98 in 10.0 mi Calm Calm - N/A   Clear
3:55 AM 76.3 °F - 74.3 °F 94% 29.98 in 10.0 mi SE 3.5 mph - N/A   Clear
4:15 AM 76.1 °F - 74.3 °F 94% 29.97 in 10.0 mi ESE 3.5 mph - N/A   Clear
4:55 AM 75.2 °F - 73.8 °F 95% 29.97 in 10.0 mi Calm Calm - N/A   Clear
5:15 AM 75.2 °F - 73.6 °F 95% 29.98 in 10.0 mi Calm Calm - N/A   Clear
5:35 AM 75.4 °F - 73.8 °F 95% 29.98 in 10.0 mi Calm Calm - N/A   Clear
5:55 AM 74.7 °F - 73.0 °F 95% 29.98 in 10.0 mi Calm Calm - N/A   Clear
6:15 AM 74.7 °F - 73.4 °F 96% 29.98 in 10.0 mi ENE 3.5 mph - N/A   Clear
6:35 AM 75.0 °F - 73.6 °F 95% 29.99 in 10.0 mi East 3.5 mph - N/A   Clear
6:55 AM 74.7 °F - 73.4 °F 96% 30.00 in 10.0 mi North - - N/A   Clear
7:15 AM 74.8 °F - 73.4 °F 95% 30.01 in 10.0 mi East 3.5 mph - N/A   Clear
7:35 AM 76.1 °F - 73.9 °F 93% 30.01 in 10.0 mi East 3.5 mph - N/A   Clear
7:55 AM 77.9 °F - 74.8 °F 90% 30.01 in 10.0 mi Calm Calm - N/A   Clear
8:15 AM 79.5 °F - 75.2 °F 87% 30.01 in 10.0 mi East 3.5 mph - N/A   Clear
8:35 AM 81.0 °F 87.1 °F 75.7 °F 84% 30.02 in 10.0 mi ESE 3.5 mph - N/A   Clear
8:55 AM 82.2 °F 89.3 °F 75.4 °F 80% 30.02 in 10.0 mi ESE 4.6 mph - N/A   Clear
9:15 AM 83.8 °F 92.1 °F 75.6 °F 76% 30.02 in 10.0 mi SE 3.5 mph - N/A   Clear
9:35 AM 84.7 °F 94.0 °F 75.9 °F 75% 30.02 in 10.0 mi East 4.6 mph - N/A   Clear
9:55 AM 86.0 °F 96.9 °F 77.0 °F 74% 30.02 in 10.0 mi Calm Calm - N/A   Clear
10:35 AM 86.9 °F 96.8 °F 75.6 °F 69% 30.02 in 10.0 mi ESE 4.6 mph - N/A   Mostly Cloudy
10:55 AM 87.8 °F 96.1 °F 73.8 °F 63% 30.01 in 10.0 mi ESE 4.6 mph - N/A   Scattered Clouds
11:15 AM 88.3 °F 97.9 °F 74.7 °F 64% 30.01 in 10.0 mi East 5.8 mph - N/A   Mostly Cloudy
11:35 AM 89.6 °F 98.2 °F 73.8 °F 59% 30.01 in 10.0 mi ESE 8.1 mph - N/A   Mostly Cloudy
11:55 AM 88.2 °F 95.0 °F 72.3 °F 59% 30.01 in 10.0 mi East 3.5 mph - N/A   Mostly Cloudy
12:15 PM 88.0 °F 94.7 °F 72.0 °F 59% 30.00 in 10.0 mi Calm Calm - N/A   Mostly Cloudy
12:35 PM 88.7 °F 95.7 °F 72.3 °F 58% 30.00 in 10.0 mi Calm Calm - N/A   Mostly Cloudy
12:55 PM 88.0 °F 96.0 °F 73.6 °F 62% 29.99 in 10.0 mi ESE 5.8 mph - N/A   Overcast
1:15 PM 87.8 °F 96.1 °F 73.9 °F 63% 29.98 in 10.0 mi SE 5.8 mph - N/A   Mostly Cloudy
1:35 PM 88.9 °F 98.1 °F 74.5 °F 62% 29.98 in 10.0 mi SE 9.2 mph - N/A   Mostly Cloudy
1:55 PM 88.7 °F 97.2 °F 73.8 °F 61% 29.97 in - SE 9.2 mph 19.6 mph N/A   Scattered Clouds
2:15 PM 88.3 °F 95.9 °F 72.7 °F 60% 29.95 in 10.0 mi SSE 8.1 mph - N/A Thunderstorm Clear
2:35 PM 88.7 °F 97.7 °F 74.1 °F 62% 29.95 in 10.0 mi SSE 8.1 mph - N/A   Clear
2:55 PM 88.9 °F 99.7 °F 75.9 °F 65% 29.94 in 10.0 mi South 8.1 mph - N/A   Clear
3:15 PM 89.4 °F 100.0 °F 75.6 °F 63% 29.93 in 10.0 mi SSE 9.2 mph - N/A   Scattered Clouds
3:35 PM 87.1 °F 96.8 °F 75.2 °F 68% 29.93 in 10.0 mi SSE 11.5 mph - N/A   Mostly Cloudy
3:55 PM 87.3 °F 94.9 °F 73.4 °F 63% 29.93 in 10.0 mi SSE 9.2 mph - N/A   Scattered Clouds
4:15 PM 87.4 °F 96.2 °F 74.3 °F 65% 29.93 in 10.0 mi ESE 9.2 mph - N/A   Scattered Clouds
4:35 PM 88.5 °F 96.8 °F 73.4 °F 61% 29.92 in 10.0 mi SE 9.2 mph - N/A   Clear
4:55 PM 88.7 °F 93.5 °F 69.8 °F 53% 29.92 in 10.0 mi SE 9.2 mph - N/A   Clear
5:15 PM 88.7 °F 95.2 °F 71.6 °F 57% 29.92 in 10.0 mi SE 8.1 mph - N/A   Clear
5:35 PM 88.9 °F 96.6 °F 72.9 °F 59% 29.92 in 10.0 mi SE 6.9 mph - N/A   Clear
5:55 PM 87.6 °F 95.2 °F 73.0 °F 62% 29.92 in 10.0 mi SE 10.4 mph - N/A   Clear
6:15 PM 87.1 °F 95.4 °F 73.9 °F 65% 29.93 in 10.0 mi SSE 15.0 mph - N/A   Scattered Clouds
6:35 PM 86.9 °F 94.5 °F 73.2 °F 64% 29.93 in 10.0 mi SE 8.1 mph - N/A   Scattered Clouds
6:55 PM 86.0 °F 93.0 °F 73.0 °F 65% 29.93 in 10.0 mi SSE 9.2 mph - N/A   Clear
7:15 PM 84.6 °F 91.0 °F 72.9 °F 68% 29.93 in 10.0 mi SSE 8.1 mph - N/A   Clear
7:55 PM 83.3 °F 89.9 °F 73.8 °F 73% 29.94 in 10.0 mi SE 5.8 mph - N/A   Clear
8:15 PM 82.6 °F 88.8 °F 74.1 °F 75% 29.94 in 10.0 mi SE 5.8 mph - N/A   Clear
8:35 PM 81.9 °F 88.2 °F 74.7 °F 79% 29.93 in 10.0 mi SE 5.8 mph - N/A   Clear
8:55 PM 81.5 °F 87.8 °F 75.2 °F 81% 29.94 in 10.0 mi SE 5.8 mph - N/A   Clear
9:15 PM 81.0 °F 86.9 °F 75.4 °F 83% 29.94 in 10.0 mi SE 6.9 mph - N/A   Clear
9:55 PM 81.0 °F 87.1 °F 75.6 °F 84% 29.96 in 10.0 mi SE 5.8 mph - N/A   Mostly Cloudy
10:15 PM 80.6 °F 86.4 °F 75.7 °F 85% 29.97 in 10.0 mi SSE 4.6 mph - N/A   Scattered Clouds
10:35 PM 79.9 °F - 75.2 °F 86% 29.97 in 10.0 mi SSE 5.8 mph - N/A   Clear
10:55 PM 79.7 °F - 74.8 °F 85% 29.97 in 10.0 mi South 3.5 mph - N/A   Scattered Clouds
11:15 PM 79.0 °F - 74.5 °F 86% 29.96 in 10.0 mi SSE 4.6 mph - N/A   Mostly Cloudy
11:35 PM 78.8 °F - 74.3 °F 86% 29.95 in 10.0 mi Calm Calm - N/A   Clear
11:55 PM 78.8 °F - 74.3 °F 86% 29.95 in 10.0 mi Calm Calm - N/A   Clear